• In Lithuania
  • List of Countries
  • For 7 days
  • Water Temperature
  • Satellite Maps
  • Weather Map
  • Weather Widgets
  • user-avatar
    Login

    Hourly Weather Jewłach

    Today, 19 October, Friday

    Time Temperature Precipitation Wind Pressure Humidity
    00:00 +18°C° 0 mm 3 mps 765 mmHg 79%
    01:00 +18°C° 0 mm 2 mps 765 mmHg 81%
    02:00 +18°C° 0 mm 2 mps 765 mmHg 84%
    03:00 +18°C° 0 mm 1 mps 765 mmHg 86%
    04:00 +18°C° 0 mm 1 mps 765 mmHg 86%
    05:00 +18°C° 0 mm 1 mps 765 mmHg 87%
    06:00 +18°C° 0 mm 1 mps 765 mmHg 87%
    07:00 +19°C° 0 mm 1 mps 765 mmHg 82%
    08:00 +20°C° 0 mm 1 mps 765 mmHg 78%
    09:00 +20°C° 0 mm 2 mps 765 mmHg 74%
    10:00 +21°C° 0 mm 2 mps 764 mmHg 69%
    11:00 +23°C° 0 mm 2 mps 764 mmHg 64%
    12:00 +24°C° 0 mm 2 mps 764 mmHg 59%
    13:00 +25°C° 0 mm 2 mps 763 mmHg 57%
    14:00 +25°C° 0 mm 2 mps 763 mmHg 54%
    15:00 +25°C° 0 mm 2 mps 763 mmHg 52%
    16:00 +24°C° 0 mm 2 mps 763 mmHg 56%
    17:00 +23°C° 0 mm 2 mps 763 mmHg 60%
    18:00 +21°C° 0 mm 2 mps 763 mmHg 64%
    19:00 +21°C° 0 mm 2 mps 763 mmHg 67%
    20:00 +20°C° 0 mm 2 mps 764 mmHg 70%
    21:00 +20°C° 0 mm 2 mps 764 mmHg 73%
    22:00 +19°C° 0 mm 2 mps 764 mmHg 76%
    23:00 +18°C° 0 mm 2 mps 764 mmHg 79%

    Tomorrow, 20 October, Saturday

    Time Temperature Precipitation Wind Pressure Humidity
    00:00 +18°C° 0 mm 2 mps 763 mmHg 82%
    01:00 +19°C° 0 mm 1 mps 763 mmHg 83%
    02:00 +18°C° 0 mm 1 mps 763 mmHg 84%
    03:00 +18°C° 0 mm 1 mps 763 mmHg 85%
    04:00 +18°C° 0 mm 1 mps 763 mmHg 84%
    05:00 +18°C° 0 mm 1 mps 763 mmHg 84%
    06:00 +18°C° 0 mm 1 mps 763 mmHg 83%
    07:00 +19°C° 0 mm 1 mps 763 mmHg 79%
    08:00 +20°C° 0 mm 1 mps 762 mmHg 74%
    09:00 +21°C° 0 mm 1 mps 762 mmHg 69%
    10:00 +23°C° 0 mm 2 mps 762 mmHg 62%
    11:00 +24°C° 0 mm 2 mps 761 mmHg 56%
    12:00 +25°C° 0 mm 2 mps 761 mmHg 50%
    13:00 +25°C° 0 mm 1 mps 760 mmHg 47%
    14:00 +26°C° 0 mm 1 mps 760 mmHg 45%
    15:00 +26°C° 0 mm 1 mps 760 mmHg 42%
    16:00 +25°C° 0 mm 1 mps 760 mmHg 46%
    17:00 +24°C° 0 mm 1 mps 760 mmHg 50%
    18:00 +23°C° 0 mm 1 mps 760 mmHg 54%
    19:00 +22°C° 0 mm 1 mps 761 mmHg 56%
    20:00 +22°C° 0 mm 1 mps 761 mmHg 58%
    21:00 +21°C° 0 mm 1 mps 761 mmHg 60%
    22:00 +21°C° 0 mm 1 mps 761 mmHg 61%
    23:00 +21°C° 0 mm 1 mps 761 mmHg 63%

    Day after tomorrow, 21 October, Sunday

    Time Temperature Precipitation Wind Pressure Humidity
    00:00 +20°C° 0 mm 1 mps 761 mmHg 64%
    01:00 +20°C° 0 mm 1 mps 760 mmHg 65%
    02:00 +19°C° 0 mm 1 mps 760 mmHg 66%
    03:00 +17°C° 0 mm 0 mps 760 mmHg 67%
    04:00 +19°C° 0 mm 1 mps 760 mmHg 66%
    05:00 +19°C° 0 mm 1 mps 760 mmHg 66%
    06:00 +19°C° 0 mm 1 mps 760 mmHg 65%
    07:00 +20°C° 0 mm 1 mps 760 mmHg 60%
    08:00 +22°C° 0 mm 1 mps 760 mmHg 54%
    09:00 +23°C° 0 mm 1 mps 760 mmHg 48%
    10:00 +25°C° 0 mm 1 mps 760 mmHg 44%
    11:00 +26°C° 0 mm 1 mps 759 mmHg 39%
    12:00 +27°C° 0 mm 1 mps 759 mmHg 34%
    13:00 +27°C° 0 mm 1 mps 759 mmHg 32%
    14:00 +28°C° 0 mm 1 mps 759 mmHg 31%
    15:00 +28°C° 0 mm 1 mps 758 mmHg 30%
    16:00 +27°C° 0 mm 1 mps 759 mmHg 33%
    17:00 +23°C° 0 mm 0 mps 759 mmHg 36%
    18:00 +22°C° 0 mm 0 mps 759 mmHg 39%
    19:00 +24°C° 0 mm 1 mps 759 mmHg 40%
    20:00 +23°C° 0 mm 1 mps 759 mmHg 41%
    21:00 +23°C° 0 mm 1 mps 760 mmHg 42%
    22:00 +23°C° 0 mm 1 mps 759 mmHg 43%
    23:00 +22°C° 0 mm 1 mps 759 mmHg 45%

    22 October, Monday

    Time Temperature Precipitation Wind Pressure Humidity
    00:00 +22°C° 0 mm 1 mps 759 mmHg 46%
    01:00 +21°C° 0 mm 1 mps 759 mmHg 47%
    02:00 +21°C° 0 mm 1 mps 759 mmHg 48%
    03:00 +21°C° 0 mm 1 mps 759 mmHg 49%
    04:00 +21°C° 0 mm 1 mps 759 mmHg 48%
    05:00 +21°C° 0 mm 1 mps 759 mmHg 47%
    06:00 +21°C° 0 mm 1 mps 759 mmHg 46%
    07:00 +22°C° 0 mm 1 mps 759 mmHg 43%
    08:00 +23°C° 0 mm 1 mps 759 mmHg 40%
    09:00 +24°C° 0 mm 2 mps 759 mmHg 36%
    10:00 +25°C° 0 mm 2 mps 759 mmHg 34%
    11:00 +26°C° 0 mm 2 mps 759 mmHg 31%
    12:00 +27°C° 0 mm 2 mps 758 mmHg 29%
    13:00 +27°C° 0 mm 2 mps 758 mmHg 28%
    14:00 +28°C° 0 mm 2 mps 758 mmHg 28%
    15:00 +28°C° 0 mm 2 mps 758 mmHg 27%
    16:00 +27°C° 0 mm 2 mps 758 mmHg 30%
    17:00 +25°C° 0 mm 2 mps 758 mmHg 32%
    18:00 +24°C° 0 mm 2 mps 759 mmHg 35%
    19:00 +24°C° 0 mm 2 mps 759 mmHg 36%
    20:00 +23°C° 0 mm 2 mps 759 mmHg 37%
    21:00 +23°C° 0 mm 2 mps 760 mmHg 38%
    22:00 +21°C° 0 mm 2 mps 760 mmHg 39%
    23:00 +21°C° 0 mm 2 mps 760 mmHg 39%

    23 October, Tuesday

    Time Temperature Precipitation Wind Pressure Humidity
    00:00 +21°C° 0 mm 2 mps 760 mmHg 40%
    01:00 +20°C° 0 mm 2 mps 760 mmHg 40%
    02:00 +20°C° 0 mm 2 mps 760 mmHg 41%
    03:00 +20°C° 0 mm 2 mps 760 mmHg 42%
    04:00 +19°C° 0 mm 2 mps 760 mmHg 42%
    05:00 +19°C° 0 mm 2 mps 760 mmHg 43%
    06:00 +19°C° 0 mm 2 mps 760 mmHg 44%
    07:00 +20°C° 0 mm 2 mps 761 mmHg 40%
    08:00 +23°C° 0 mm 1 mps 761 mmHg 37%
    09:00 +25°C° 0 mm 1 mps 761 mmHg 34%
    10:00 +26°C° 0 mm 1 mps 760 mmHg 32%
    11:00 +27°C° 0 mm 1 mps 760 mmHg 30%
    12:00 +28°C° 0 mm 1 mps 759 mmHg 28%
    13:00 +28°C° 0 mm 1 mps 759 mmHg 28%
    14:00 +28°C° 0 mm 1 mps 759 mmHg 28%
    15:00 +28°C° 0 mm 1 mps 758 mmHg 27%
    16:00 +27°C° 0 mm 1 mps 759 mmHg 30%
    17:00 +26°C° 0 mm 1 mps 759 mmHg 33%
    18:00 +24°C° 0 mm 1 mps 759 mmHg 36%
    19:00 +24°C° 0 mm 1 mps 760 mmHg 37%
    20:00 +23°C° 0 mm 1 mps 760 mmHg 37%
    21:00 +23°C° 0 mm 1 mps 760 mmHg 38%
    22:00 +22°C° 0 mm 1 mps 760 mmHg 39%
    23:00 +21°C° 0 mm 2 mps 760 mmHg 39%

    24 October, Wednesday

    Time Temperature Precipitation Wind Pressure Humidity
    00:00 +21°C° 0 mm 2 mps 759 mmHg 40%
    01:00 +20°C° 0 mm 2 mps 759 mmHg 40%
    02:00 +20°C° 0 mm 3 mps 759 mmHg 41%
    03:00 +20°C° 0 mm 3 mps 759 mmHg 41%
    04:00 +19°C° 0 mm 3 mps 759 mmHg 42%
    05:00 +19°C° 0 mm 3 mps 759 mmHg 43%
    06:00 +19°C° 0 mm 3 mps 759 mmHg 44%
    07:00 +21°C° 0 mm 4 mps 759 mmHg 41%
    08:00 +22°C° 0 mm 4 mps 759 mmHg 37%
    09:00 +25°C° 0 mm 4 mps 759 mmHg 34%
    10:00 +26°C° 0 mm 4 mps 758 mmHg 32%
    11:00 +27°C° 0 mm 4 mps 757 mmHg 30%
    12:00 +29°C° 0 mm 3 mps 757 mmHg 28%
    13:00 +29°C° 0 mm 3 mps 756 mmHg 27%
    14:00 +29°C° 0 mm 3 mps 756 mmHg 27%
    15:00 +29°C° 0 mm 2 mps 755 mmHg 26%
    16:00 +28°C° 0 mm 2 mps 755 mmHg 29%
    17:00 +26°C° 0 mm 2 mps 755 mmHg 32%
    18:00 +25°C° 0 mm 1 mps 755 mmHg 35%
    19:00 +24°C° 0 mm 1 mps 755 mmHg 36%
    20:00 +24°C° 0 mm 1 mps 755 mmHg 37%
    21:00 +23°C° 0 mm 1 mps 755 mmHg 38%
    22:00 +23°C° 0 mm 1 mps 754 mmHg 38%
    23:00 +22°C° 0 mm 1 mps 754 mmHg 38%
    Show more